Content
SEND FEEDBACK

Daily
Averages
Monthly
Summary
Mexico

SAN MARTINIANO, QUINTANA ROO


Home > North America > Mexico > Quintana Roo
Elevation: 49 feet     Latitude: 20 47N     Longitude: 087 16W

WEATHER
 
SELECT A DAY
Number of Records: 200,545;   Date Range: 2/21/06 - 10/1/14
 
SHARE

PRINT THIS DATA

[ ← Previous Day ]
WEATHER ALMANAC - OCTOBER 22, 2013
[ Next Day → ]
[ °C ]   °F
Weather ElementAverageHighLow
Temperature78.5 °F89.6 °F (1:35 pm)71.6 °F (3:55 am)
Dewpoint27.3 °F73.4 °F (8:35 pm) (7:00 pm)
Humidity61.1 %94 % (8:35 pm)49 % (1:35 pm)
Barometer29.92 in29.98 in (12:35 am)29.86 in (5:35 pm)
Wind Speed4.4 mph19.6 mph (4:15 pm)
Wind Gust26.5 mph (4:35 pm)
Weather ElementAverage
Visibility6.8 mi
Wind DirectionESE (116.2 °)

Weather ElementTotal
Precipitation0.32 in
Cooling Degree Days15.6 (Base 65)
Growing Degree Days30.6 (Base 50)
Averaged from 69 records on October 22, 2013
WEATHER CONDITIONS BREAKOUT
WIND DIRECTION BREAKOUT
WEATHER BY HOUR - OCTOBER 22, 2013
[ °C ]   °F
Local TimeTemperatureDewpointHumidityBarometerVisibilityWind DirectionWind SpeedGust SpeedPrecipitationEventsConditions
12:35 AM75.2 °F0.0 °F29.98 in10.0 miCalmClear
12:55 AM73.4 °F0.0 °F29.98 in10.0 miCalmClear
1:15 AM73.4 °F0.0 °F29.97 in10.0 miCalmClear
1:35 AM75.2 °F0.0 °F29.97 in10.0 miCalmClear
1:55 AM73.4 °F0.0 °F29.97 in7.0 miCalmClear
2:15 AM73.4 °F0.0 °F29.96 in5.0 miCalmHaze
2:35 AM73.4 °F0.0 °F29.96 in7.0 miCalmClear
2:55 AM73.4 °F0.0 °F29.95 in7.0 miCalmClear
3:15 AM73.4 °F0.0 °F29.95 in7.0 miCalmClear
3:35 AM73.4 °F0.0 °F29.94 in5.0 miCalmHaze
3:55 AM71.6 °F0.0 °F29.94 in2.5 miCalmClear
4:15 AM73.4 °F0.0 °F29.93 in5.0 miCalmHaze
4:35 AM73.4 °F0.0 °F29.93 in5.0 miCalmHaze
4:55 AM73.4 °F0.0 °F29.94 in0.5 miCalmFogFog
5:15 AM71.6 °F0.0 °F29.94 in0.2 miCalmFogFog
5:35 AM71.6 °F0.0 °F29.94 in0.5 miCalmFogFog
5:55 AM71.6 °F0.0 °F29.94 in0.2 miCalmFogFog
6:15 AM71.6 °F0.0 °F29.95 in0.2 miCalmFogFog
6:35 AM71.6 °F0.0 °F29.95 in0.2 miCalmFogFog
6:55 AM71.6 °F0.0 °F29.96 in0.5 miCalmFogFog
7:15 AM73.4 °F0.0 °F29.96 in0.2 miCalmFogFog
7:35 AM73.4 °F0.0 °F29.96 in0.2 miCalmFogFog
7:55 AM73.4 °F0.0 °F29.96 in0.2 miCalmFogFog
8:15 AM73.4 °F0.0 °F29.96 in0.2 miCalmFogFog
8:35 AM73.4 °F0.0 °F29.96 in0.2 miCalmFogFog
8:55 AM73.4 °F0.0 °F29.97 in0.2 miCalmFogFog
9:15 AM75.2 °F0.0 °F29.96 in0.2 miCalmFogFog
9:35 AM75.2 °F0.0 °F29.96 in0.2 miCalmFogFog
9:55 AM75.2 °F0.0 °F29.96 in0.5 miCalmFogFog
10:15 AM77.0 °F0.0 °F29.96 in3.0 miCalmOvercast
10:35 AM77.0 °F0.0 °F29.96 in5.0 miSE (140°)3.5 mphHaze
10:55 AM78.8 °F0.0 °F29.96 in7.0 miSSW (210°)4.6 mphClear
11:15 AM78.8 °F0.0 °F29.95 in10.0 miSouth (190°)6.9 mphClear
11:35 AM80.6 °F0.0 °F29.94 in10.0 miSSW (200°)4.6 mphClear
11:55 AM84.2 °F71.6 °F66 %29.94 in10.0 miSSW (200°)6.9 mphClear
12:15 PM86.0 °F69.8 °F58 %29.94 in10.0 miSSW (210°)9.2 mphClear
12:35 PM87.8 °F69.8 °F55 %29.94 in10.0 miSSW (200°)6.9 mphMostly Cloudy
12:55 PM87.8 °F68.0 °F52 %29.93 in10.0 miSSW (210°)8.1 mphOvercast
1:15 PM87.8 °F68.0 °F52 %29.92 in10.0 miSW (230°)9.2 mphMostly Cloudy
1:35 PM89.6 °F68.0 °F49 %29.91 in10.0 miWSW (240°)10.4 mphScattered Clouds
1:55 PM89.6 °F68.0 °F49 %29.90 in10.0 miSW (220°)12.7 mph16.1 mphScattered Clouds
2:15 PM89.6 °F69.8 °F52 %29.89 in10.0 miSW (230°)8.1 mphMostly Cloudy
2:35 PM87.8 °F69.8 °F55 %29.88 in10.0 miSW (230°)11.5 mph17.3 mphScattered Clouds
2:55 PM89.6 °F69.8 °F52 %29.88 in10.0 miWest (260°)12.7 mphMostly Cloudy
3:15 PM87.8 °F69.8 °F55 %29.87 in10.0 miWSW (240°)12.7 mph17.3 mphScattered Clouds
3:35 PM89.6 °F69.8 °F52 %29.88 in10.0 miWSW (250°)16.1 mph20.7 mphScattered Clouds
3:55 PM89.6 °F69.8 °F52 %29.87 in10.0 miWest (260°)16.1 mph21.9 mphScattered Clouds
4:15 PM89.6 °F68.0 °F49 %29.87 in10.0 miWSW (250°)19.6 mph25.3 mphScattered Clouds
4:35 PM87.8 °F68.0 °F52 %29.87 in10.0 miWest (260°)18.4 mph26.5 mphClear
4:55 PM87.8 °F69.8 °F55 %29.87 in10.0 miWSW (240°)16.1 mph23.0 mphScattered Clouds
5:15 PM86.0 °F69.8 °F58 %29.87 in10.0 miWSW (240°)12.7 mph17.3 mphScattered Clouds
5:35 PM86.0 °F69.8 °F58 %29.86 in10.0 miWSW (250°)12.7 mphScattered Clouds
5:55 PM84.2 °F69.8 °F62 %29.86 in10.0 miWest (260°)11.5 mph18.4 mphScattered Clouds
6:15 PM82.4 °F68.0 °F62 %29.86 in10.0 miWest (280°)9.2 mphScattered Clouds
6:35 PM80.6 °F69.8 °F70 %29.86 in10.0 miWNW (290°)5.8 mphScattered Clouds
6:55 PM78.8 °F71.6 °F78 %29.87 in10.0 miNW (310°)5.8 mphMostly Cloudy
7:15 PM78.8 °F71.6 °F78 %29.87 in10.0 miCalmMostly Cloudy
7:35 PM78.8 °F71.6 °F78 %29.88 in10.0 miCalmScattered Clouds
7:55 PM78.8 °F71.6 °F78 %29.89 in10.0 miNW (310°)5.8 mphScattered Clouds
8:15 PM77.0 °F69.8 °F78 %29.91 in10.0 miWNW (290°)5.8 mphRainLight Rain
8:35 PM75.2 °F73.4 °F94 %29.91 in7.0 miWest (280°)3.5 mph0.04 inRainRain
8:55 PM75.2 °F0.0 °F29.92 in10.0 miWest (260°)4.6 mph0.05 inRainLight Rain
9:15 PM75.2 °F0.0 °F29.92 in7.0 miWest (280°)6.9 mph0.02 inRainRain
9:35 PM75.2 °F0.0 °F29.92 in7.0 miWest (280°)4.6 mph0.09 inRainRain
9:55 PM75.2 °F0.0 °F29.91 in7.0 miCalm0.12 inRainLight Rain
10:35 PM75.2 °F0.0 °F29.87 in10.0 miCalmClear
11:15 PM75.2 °F0.0 °F29.87 in10.0 miCalmScattered Clouds
11:35 PM75.2 °F0.0 °F29.87 in10.0 miSW (220°)3.5 mphClear
11:55 PM73.4 °F0.0 °F29.87 in10.0 miCalmClear
Hourly data recorded from KPCM, located miles away from San Martiniano, Quintana Roo







STORIES FROM OUR PARTNERS